STARLINK-1748 (46570 NORAD) Tracking and Keplerian Element Data

This shows tracking and keplerian element data for the satellite.

Feedback or suggestion? Click here.




ElementValue
Catalog46570
NameSTARLINK-1748
Epoch Orbit1832
Epoch Day27.25001157
Epoch Year2021
RAAN259.8477
Inclination53.0573
Eccentricity0.0002392
Argument of Perigee75.7378
Mean Anonmoly331.3953
Mean Motion15.06411585
Decay Rate-0.00028536
L11 46570U 20070AQ 21027.25001157 -.00028536 00000-0 -19038-2 0 9993
L22 46570 53.0573 259.8477 0002392 75.7378 331.3953 15.06411585 18329

Live tracking and technical data element details for STARLINK-1748 (NORAD 46570). STARLINK-1748 can be tracked NOW for your location showing map with azimuth and elevation plus other details from your city location.

Track the satellite on the map from your city or location and see movement details for azimuth, elevation, latitude, longitude, range, height, and movement on the map or in text.







IsCatalogInMostPopularTable: catalog: 46570, numindb: 41
Update: records affected: 1



GetName: 46570 STARLINK-1748

Hit Count: updated at: Thu, 28 Jan 2021 10:58:44 GMT